FW5837 Weather Reports


Display with metric or nautical units.
time (UTC)temp
F
wind
direction
speed
MPH
gust
MPH
rain 1hr
in
rain 24hr
in
rain mn
in
humidity
%
barometer
mb
20260901094027 60 0 0.0 0.0 0.00 0.00 0.00 95 1018.8
20260901093529 60 0 0.0 3.0 0.00 0.00 0.00 95 1018.7
20260901093050 60 0 1.0 5.0 0.00 0.00 0.00 95 1018.7
20260901092533 60 64 3.0 5.0 0.00 0.00 0.00 95 1018.6
20260901092030 60 58 3.0 5.0 0.00 0.00 0.00 94 1018.6
20260901091547 60 64 3.0 5.0 0.00 0.00 0.00 94 1018.6
20260901091027 60 58 1.0 4.0 0.00 0.00 0.00 94 1018.7
20260901090528 60 0 2.0 4.0 0.00 0.00 0.00 94 1018.8
20260901090056 60 58 1.0 4.0 0.00 0.00 0.00 94 1018.8
20260901085528 60 0 0.0 0.0 0.00 0.00 0.00 94 1018.9
20260901085028 60 0 0.0 0.0 0.00 0.00 0.00 93 1018.9
20260901084555 60 0 0.0 0.0 0.00 0.00 0.00 94 1018.9
20260901084030 60 0 0.0 0.0 0.00 0.00 0.00 93 1018.9
20260901083530 60 0 0.0 0.0 0.00 0.00 0.00 93 1018.9
20260901083048 60 0 0.0 0.0 0.00 0.00 0.00 94 1018.7
20260901082528 60 0 0.0 0.0 0.00 0.00 0.00 93 1018.7
20260901082028 60 0 0.0 0.0 0.00 0.00 0.00 93 1018.9
20260901081548 60 0 0.0 0.0 0.00 0.00 0.00 93 1019.1
20260901081029 60 0 0.0 0.0 0.00 0.00 0.00 93 1019.1
20260901080530 60 0 0.0 0.0 0.00 0.00 0.00 93 1019.0
20260901080057 60 0 0.0 0.0 0.00 0.00 0.00 93 1019.0
20260901075531 60 0 0.0 0.0 0.00 0.00 0.00 93 1019.0
20260901075031 60 0 0.0 0.0 0.00 0.00 0.00 93 1018.9
20260901074555 60 0 0.0 2.0 0.00 0.00 0.00 93 1018.8
20260901074029 60 0 0.0 2.0 0.00 0.00 0.00 93 1018.8
20260901073530 60 58 0.0 2.0 0.00 0.00 0.00 93 1018.8
20260901073047 60 0 0.0 0.0 0.00 0.00 0.00 93 1018.7
20260901072530 60 0 0.0 0.0 0.00 0.00 0.00 93 1018.8
20260901072032 60 0 0.0 2.0 0.00 0.00 0.00 93 1018.8
20260901071557 60 0 0.0 2.0 0.00 0.00 0.00 93 1018.9
20260901071031 60 0 1.0 2.0 0.00 0.00 0.00 92 1018.9
20260901070531 60 0 0.0 3.0 0.00 0.00 0.00 92 1019.2
20260901065533 60 58 2.0 4.0 0.00 0.00 0.00 92 1019.3
20260901065033 61 58 2.0 4.0 0.00 0.00 0.00 92 1019.4
20260901064552 61 58 2.0 3.0 0.00 0.00 0.00 92 1019.5
20260901064036 61 0 0.0 0.0 0.00 0.00 0.00 92 1019.6
20260901063529 61 0 0.0 0.0 0.00 0.00 0.00 91 1019.8
20260901063104 61 0 0.0 0.0 0.00 0.00 0.00 91 1019.7
20260901062532 61 0 0.0 0.0 0.00 0.00 0.00 91 1019.9
20260901062032 61 0 0.0 0.0 0.00 0.00 0.00 91 1019.8
20260901061622 61 0 0.0 0.0 0.00 0.00 0.00 91 1019.8
20260901061033 61 0 0.0 0.0 0.00 0.00 0.00 91 1019.8
20260901060534 61 0 0.0 2.0 0.00 0.00 0.00 91 1019.7
20260901060100 61 0 0.0 2.0 0.00 0.00 0.00 91 1019.9
20260901055529 61 58 1.0 3.0 0.00 0.00 0.00 91 1019.9
20260901055029 61 58 1.0 3.0 0.00 0.00 0.00 91 1019.8
20260901054553 61 58 1.0 3.0 0.00 0.00 0.00 90 1019.8
20260901054032 61 58 1.0 3.0 0.00 0.00 0.00 90 1019.5
20260901053535 62 0 0.0 0.0 0.00 0.00 0.00 89 1019.6
20260901053105 62 0 0.0 0.0 0.00 0.00 0.00 90 1019.8
20260901052528 61 0 0.0 0.0 0.00 0.00 0.00 90 1019.9